Location: Unspecified
(50.7693°N, 0.0000°E)
Time: 05:05:49
(UTC+00:00)

A-11 Canister half - Pass Details

Date: 27 June 2019
Orbit: 1526 x 1683 km, 47.3° (Epoch: 22 July)

Event Time Altitude Azimuth Distance (km) Brightness Sun altitude
Exits shadow 01:04:21 - 159° (SSE) 3,837 10.6 -14.7°
Reaches altitude 10° 01:04:43 10° 157° (SSE) 3,780 10.6 -14.6°
Maximum altitude 01:09:26 15° 127° (SE) 3,375 10.6 -14.5°
Drops below altitude 10° 01:14:05 10° 96° (E) 3,733 11.2 -14.2°
Sets 01:18:53 0° 75° (ENE) 4,700 12.0 -14.0°
